GW1804 Weather Reports


time (UTC)temp
F
wind
direction
speed
knots
gust
knots
rain 1hr
in
rain 24hr
in
rain mn
in
humidity
%
barometer
mb
20260906011035 78 296 1.7 4.3 0.00 0.00 0.00 65 1012.2
20260906010535 78 330 1.7 4.3 0.00 0.00 0.00 65 1012.2
20260906010053 79 306 1.7 3.5 0.00 0.00 0.00 63 1012.2
20260906005534 79 315 1.7 3.5 0.00 0.00 0.00 61 1012.2
20260906005032 80 265 1.7 3.5 0.00 0.00 0.00 56 1012.2
20260906004602 80 292 1.7 5.2 0.00 0.00 0.00 61 1012.1
20260906004036 80 298 1.7 5.2 0.00 0.00 0.00 63 1012.1
20260906003535 80 315 1.7 5.2 0.00 0.00 0.00 61 1012.1
20260906003057 80 315 1.7 4.3 0.00 0.00 0.00 61 1012.1
20260906002532 80 269 1.7 5.2 0.00 0.00 0.00 60 1012.1
20260906002035 80 293 1.7 6.1 0.00 0.00 0.00 59 1012.1
20260906001611 81 300 1.7 6.1 0.00 0.00 0.00 57 1012.2
20260906001032 81 295 1.7 6.1 0.00 0.00 0.00 60 1012.2
20260906000532 81 302 3.5 6.1 0.00 0.00 0.00 60 1012.1
20260906000109 81 278 1.7 7.8 0.00 0.00 0.00 61 1012.1
20260905235536 81 286 2.6 7.8 0.00 0.00 0.00 63 1012.2
20260905235033 81 275 2.6 7.0 0.00 0.00 0.00 62 1012.1
20260905234559 81 301 2.6 7.8 0.00 0.00 0.00 61 1012.1
20260905234035 81 322 2.6 7.8 0.00 0.00 0.00 63 1012.2
20260905233535 81 299 3.5 7.8 0.00 0.00 0.00 64 1012.2
20260905233107 81 312 3.5 7.8 0.00 0.00 0.00 64 1012.1
20260905232533 82 315 3.5 6.1 0.00 0.00 0.00 63 1012.1
20260905232035 82 326 2.6 7.0 0.00 0.00 0.00 60 1012.1
20260905231618 82 296 2.6 7.0 0.00 0.00 0.00 63 1012.1
20260905231037 82 315 3.5 7.0 0.00 0.00 0.00 62 1012.1
20260905230535 82 318 3.5 7.0 0.00 0.00 0.00 59 1012.1
20260905230108 82 309 3.5 7.0 0.00 0.00 0.00 58 1012.2
20260905225536 83 325 3.5 7.0 0.00 0.00 0.00 57 1012.2
20260905225035 83 298 3.5 7.0 0.00 0.00 0.00 57 1012.1
20260905224555 83 309 2.6 7.0 0.00 0.00 0.00 55 1012.2
20260905224039 83 296 3.5 7.8 0.00 0.00 0.00 55 1012.2
20260905223535 82 243 3.5 7.8 0.00 0.00 0.00 51 1012.2
20260905223105 82 282 3.5 7.8 0.00 0.00 0.00 55 1012.3
20260905222532 82 311 2.6 7.8 0.00 0.00 0.00 59 1012.3
20260905222034 82 308 3.5 7.0 0.00 0.00 0.00 59 1012.4
20260905221621 82 279 2.6 9.6 0.00 0.00 0.00 63 1012.4
20260905221032 81 297 3.5 9.6 0.00 0.00 0.00 62 1012.5
20260905220535 81 296 3.5 7.0 0.00 0.00 0.00 60 1012.6
20260905220057 81 276 3.5 7.0 0.00 0.00 0.00 63 1012.6
20260905215535 81 314 3.5 7.8 0.00 0.00 0.00 64 1012.6
20260905215035 81 296 3.5 7.8 0.00 0.00 0.00 64 1012.7
20260905214601 81 296 3.5 7.8 0.00 0.00 0.00 63 1012.7
20260905214035 81 311 4.3 7.8 0.00 0.00 0.00 62 1012.7
20260905213535 81 309 3.5 7.8 0.00 0.00 0.00 62 1012.7
20260905213105 81 302 3.5 7.8 0.00 0.00 0.00 64 1012.8
20260905212535 81 305 3.5 7.8 0.00 0.00 0.00 65 1012.8
20260905212035 81 292 3.5 7.0 0.00 0.00 0.00 67 1012.9
20260905211600 81 279 3.5 7.0 0.00 0.00 0.00 67 1012.9
20260905211035 81 285 2.6 7.0 0.00 0.00 0.00 67 1012.9
20260905210536 81 313 2.6 7.8 0.00 0.00 0.00 67 1012.9
20260905210108 81 343 2.6 7.8 0.00 0.00 0.00 66 1012.9
20260905205536 81 292 3.5 7.8 0.00 0.00 0.00 67 1012.9
20260905205035 81 277 3.5 7.0 0.00 0.00 0.00 66 1013.0
20260905204552 81 339 2.6 7.0 0.00 0.00 0.00 67 1013.0
20260905204034 81 321 2.6 7.0 0.00 0.00 0.00 68 1013.1
20260905203535 81 321 2.6 7.0 0.00 0.00 0.00 68 1013.1
20260905203102 80 314 1.7 7.0 0.00 0.00 0.00 68 1013.1
20260905202532 80 299 1.7 7.0 0.00 0.00 0.00 67 1013.1
20260905202032 80 293 1.7 7.0 0.00 0.00 0.00 70 1013.2
20260905201600 80 266 3.5 7.0 0.00 0.00 0.00 70 1013.2
20260905201032 79 320 2.6 6.1 0.00 0.00 0.00 70 1013.2
20260905200537 79 0 2.6 5.2 0.00 0.00 0.00 68 1013.3
20260905200118 79 310 2.6 5.2 0.00 0.00 0.00 68 1013.4
20260905195535 78 5 1.7 6.1 0.00 0.00 0.00 68 1013.4
20260905195035 78 317 2.6 6.1 0.00 0.00 0.00 70 1013.5
20260905194603 78 306 1.7 6.1 0.00 0.00 0.00 69 1013.5
20260905194035 78 313 0.9 6.1 0.00 0.00 0.00 69 1013.7
20260905193535 77 313 2.6 6.1 0.00 0.00 0.00 71 1013.6
20260905193100 77 329 1.7 6.1 0.00 0.00 0.00 72 1013.7
20260905192535 76 286 2.6 6.1 0.00 0.00 0.00 73 1013.8
20260905192035 76 308 2.6 4.3 0.00 0.00 0.00 73 1014.0
20260905191559 76 300 1.7 4.3 0.00 0.00 0.00 73 1014.0
20260905191034 76 300 1.7 4.3 0.00 0.00 0.00 73 1014.1
20260905190534 75 269 1.7 4.3 0.00 0.00 0.00 73 1014.0
20260905190100 75 288 1.7 4.3 0.00 0.00 0.00 74 1014.0
20260905185536 75 290 1.7 4.3 0.00 0.00 0.00 72 1014.1
20260905185031 75 323 1.7 4.3 0.00 0.00 0.00 73 1014.1
20260905184607 75 297 0.9 3.5 0.00 0.00 0.00 73 1014.1
20260905184037 75 0 2.6 4.3 0.00 0.00 0.00 72 1014.1
20260905183536 75 294 2.6 6.1 0.00 0.00 0.00 72 1014.1
20260905183052 75 338 1.7 6.1 0.00 0.00 0.00 72 1014.1
20260905182532 75 302 1.7 6.1 0.00 0.00 0.00 71 1014.3
20260905182037 75 305 1.7 6.1 0.00 0.00 0.00 71 1014.3
20260905181558 75 275 2.6 5.2 0.00 0.00 0.00 70 1014.2
20260905181032 75 304 2.6 6.1 0.00 0.00 0.00 67 1014.2
20260905180533 75 292 2.6 6.1 0.00 0.00 0.00 68 1014.2
20260905180112 75 273 1.7 4.3 0.00 0.00 0.00 68 1014.3
20260905175532 75 309 0.9 3.5 0.00 0.00 0.00 68 1014.2
20260905175034 75 311 0.9 3.5 0.00 0.00 0.00 68 1014.2
20260905174554 75 275 0.9 2.6 0.00 0.00 0.00 69 1014.2
20260905174034 74 306 0.9 2.6 0.00 0.00 0.00 69 1014.2
20260905173535 74 233 0.9 2.6 0.00 0.00 0.00 68 1014.2
20260905173127 74 277 0.9 2.6 0.00 0.00 0.00 69 1014.2
20260905172534 73 0 0.0 2.6 0.00 0.00 0.00 69 1014.0
20260905172032 73 0 0.9 2.6 0.00 0.00 0.00 71 1014.0
20260905171600 72 305 0.0 2.6 0.00 0.00 0.00 71 1014.0
20260905171032 72 303 0.9 2.6 0.00 0.00 0.00 70 1014.0
20260905170531 72 287 0.9 2.6 0.00 0.00 0.00 71 1014.0
20260905170058 71 257 0.9 2.6 0.00 0.00 0.00 71 1014.0
20260905165535 71 290 0.9 2.6 0.00 0.00 0.00 73 1014.0
20260905165035 70 311 0.0 2.6 0.00 0.00 0.00 75 1013.9
20260905164600 70 0 0.9 2.6 0.00 0.00 0.00 78 1014.0
20260905164034 69 311 0.0 2.6 0.00 0.00 0.00 79 1013.9
20260905163531 69 311 0.0 2.6 0.00 0.00 0.00 79 1013.9
20260905163101 68 302 0.0 2.6 0.00 0.00 0.00 80 1013.9
20260905162532 68 302 0.0 1.7 0.00 0.00 0.00 81 1013.9
20260905162031 67 318 0.0 2.6 0.00 0.00 0.00 83 1013.9
20260905161601 67 265 0.0 2.6 0.00 0.00 0.00 84 1013.8
20260905161035 67 265 0.0 2.6 0.00 0.00 0.00 85 1013.8
20260905160532 67 307 0.9 2.6 0.00 0.00 0.00 87 1013.8
20260905160101 66 0 0.0 1.7 0.00 0.00 0.00 88 1013.8
20260905155536 66 215 0.0 1.7 0.00 0.00 0.00 89 1013.9
20260905155031 66 0 0.0 1.7 0.00 0.00 0.00 89 1014.0
20260905154600 65 0 0.0 1.7 0.00 0.00 0.00 90 1013.9
20260905154038 65 0 0.0 1.7 0.00 0.00 0.00 90 1013.9
20260905153535 65 0 0.0 0.9 0.00 0.00 0.00 90 1013.9
20260905153051 64 0 0.0 0.9 0.00 0.00 0.00 90 1013.7
20260905152532 64 0 0.0 0.9 0.00 0.00 0.00 91 1013.7
20260905152032 64 0 0.0 0.9 0.00 0.00 0.00 91 1013.7
20260905151601 63 0 0.0 0.0 0.00 0.00 0.00 90 1013.7
20260905151036 63 0 0.0 0.9 0.00 0.00 0.00 90 1013.7
20260905150532 63 0 0.0 0.9 0.00 0.00 0.00 90 1013.6
20260905150054 63 0 0.0 0.9 0.00 0.00 0.00 90 1013.6
20260905145537 63 0 0.0 0.0 0.00 0.00 0.00 90 1013.5
20260905145035 63 0 0.0 0.0 0.00 0.00 0.00 90 1013.5
20260905144552 63 0 0.0 0.0 0.00 0.00 0.00 90 1013.5
20260905144034 62 0 0.0 0.0 0.00 0.00 0.00 90 1013.4
20260905143532 63 0 0.0 0.0 0.00 0.00 0.00 90 1013.2
20260905143052 63 0 0.0 0.9 0.00 0.00 0.00 90 1013.2
20260905142535 63 0 0.0 0.9 0.00 0.00 0.00 90 1013.2
20260905142032 62 0 0.0 0.9 0.00 0.00 0.00 90 1013.2
20260905141557 62 0 0.0 0.9 0.00 0.00 0.00 90 1013.0
20260905141034 62 0 0.0 0.9 0.00 0.00 0.00 90 1012.9
20260905140532 62 0 0.0 0.0 0.00 0.00 0.00 90 1012.9
20260905140100 62 0 0.0 0.0 0.00 0.00 0.00 90 1013.0
20260905135536 62 0 0.0 0.0 0.00 0.00 0.00 89 1013.0
20260905135034 62 0 0.0 0.0 0.00 0.00 0.00 89 1012.9
20260905134606 62 0 0.0 0.0 0.00 0.00 0.00 89 1012.8
20260905134032 62 0 0.0 0.0 0.00 0.00 0.00 89 1012.8
20260905133532 62 0 0.0 0.0 0.00 0.00 0.00 90 1012.7
20260905133100 62 0 0.0 0.0 0.00 0.00 0.00 90 1012.7
20260905132531 62 0 0.0 0.0 0.00 0.00 0.00 90 1012.7
20260905132031 62 0 0.0 0.0 0.00 0.00 0.00 90 1012.5
20260905131600 62 0 0.0 0.0 0.00 0.00 0.00 90 1012.5
20260905131033 62 0 0.0 0.0 0.00 0.00 0.00 90 1012.4
20260905130532 62 0 0.0 0.0 0.00 0.00 0.00 90 1012.4
20260905130055 62 0 0.0 0.0 0.00 0.00 0.00 90 1012.4
20260905125534 62 0 0.0 0.9 0.00 0.00 0.00 90 1012.4
20260905125032 62 0 0.0 0.9 0.00 0.00 0.00 90 1012.5
20260905124604 62 0 0.0 0.9 0.00 0.00 0.00 90 1012.5
20260905124034 62 0 0.0 0.9 0.00 0.00 0.00 90 1012.5
20260905123531 62 0 0.0 0.9 0.00 0.00 0.00 90 1012.5
20260905123106 62 0 0.0 0.9 0.00 0.00 0.00 90 1012.5
20260905122532 62 0 0.0 0.9 0.00 0.00 0.00 90 1012.6
20260905122031 62 0 0.0 0.0 0.00 0.00 0.00 89 1012.6
20260905121559 62 0 0.0 0.0 0.00 0.00 0.00 89 1012.7
20260905121032 63 0 0.0 0.0 0.00 0.00 0.00 89 1012.7
20260905120531 63 0 0.0 0.0 0.00 0.00 0.00 89 1012.6
20260905120105 63 0 0.0 0.0 0.00 0.00 0.00 89 1012.5
20260905115532 63 0 0.0 0.0 0.00 0.00 0.00 90 1012.5
20260905115032 63 0 0.0 0.0 0.00 0.00 0.00 90 1012.4
20260905114611 63 0 0.0 0.0 0.00 0.00 0.00 90 1012.4
20260905114031 63 0 0.0 0.0 0.00 0.00 0.00 90 1012.4
20260905113535 63 0 0.0 0.0 0.00 0.00 0.00 90 1012.4
20260905113100 63 0 0.0 0.9 0.00 0.00 0.00 90 1012.5
20260905112532 63 0 0.0 0.9 0.00 0.00 0.00 90 1012.5
20260905112032 63 0 0.0 1.7 0.00 0.00 0.00 90 1012.6
20260905111646 63 0 0.0 1.7 0.00 0.00 0.00 90 1012.6
20260905111032 63 0 0.0 1.7 0.00 0.00 0.00 90 1012.7
20260905110531 63 0 0.0 1.7 0.00 0.00 0.00 90 1012.8
20260905110051 63 0 0.0 1.7 0.00 0.00 0.00 90 1012.8
20260905105532 63 0 0.0 0.9 0.00 0.00 0.00 89 1012.8
20260905105031 63 0 0.0 0.9 0.00 0.00 0.00 89 1012.7
20260905104550 63 0 0.0 0.9 0.00 0.00 0.00 89 1012.7
20260905104031 63 0 0.0 1.7 0.00 0.00 0.00 89 1012.8
20260905103531 63 0 0.0 1.7 0.00 0.00 0.00 89 1012.8
20260905103102 63 0 0.0 1.7 0.00 0.00 0.00 89 1012.7
20260905102532 63 0 0.0 0.0 0.00 0.00 0.00 89 1012.8
20260905102032 63 0 0.0 0.0 0.00 0.00 0.00 89 1012.8
20260905101556 63 0 0.0 0.9 0.00 0.00 0.00 89 1012.8
20260905101031 63 0 0.0 0.9 0.00 0.00 0.00 89 1012.7
20260905100531 63 0 0.0 1.7 0.00 0.00 0.00 89 1012.8
20260905100058 63 0 0.0 1.7 0.00 0.00 0.00 89 1012.7
20260905095531 63 0 0.0 0.9 0.00 0.00 0.00 89 1012.7
20260905095032 63 0 0.0 0.9 0.00 0.00 0.00 89 1012.9
20260905094552 63 0 0.0 0.9 0.00 0.00 0.00 89 1012.9
20260905094036 64 0 0.0 0.0 0.00 0.00 0.00 89 1012.8
20260905093532 64 0 0.0 0.0 0.00 0.00 0.00 89 1012.8
20260905093117 64 0 0.0 0.0 0.00 0.00 0.00 89 1012.8
20260905092533 64 0 0.0 0.0 0.00 0.00 0.00 89 1012.9
20260905092032 64 0 0.0 0.9 0.00 0.00 0.00 88 1012.9
20260905091556 64 0 0.0 0.9 0.00 0.00 0.00 88 1012.8
20260905091032 64 0 0.0 0.0 0.00 0.00 0.00 88 1012.9
20260905090531 64 0 0.0 0.0 0.00 0.00 0.00 88 1012.8
20260905085532 64 0 0.0 0.0 0.00 0.00 0.00 88 1012.9
20260905085035 64 0 0.0 0.0 0.00 0.00 0.00 88 1013.0
20260905084603 64 0 0.0 0.0 0.00 0.00 0.00 88 1013.0
20260905084031 64 0 0.0 0.0 0.00 0.00 0.00 88 1013.2
20260905083531 64 0 0.0 0.0 0.00 0.00 0.00 88 1013.2
20260905083058 64 0 0.0 0.9 0.00 0.00 0.00 87 1013.3
20260905082533 64 0 0.0 0.9 0.00 0.00 0.00 87 1013.2
20260905082032 64 0 0.0 0.0 0.00 0.00 0.00 87 1013.3
20260905081552 64 0 0.0 0.0 0.00 0.00 0.00 87 1013.4
20260905081033 64 0 0.0 0.0 0.00 0.00 0.00 87 1013.5
20260905080532 64 0 0.0 0.0 0.00 0.00 0.00 87 1013.5
20260905080054 64 0 0.0 0.0 0.00 0.00 0.00 86 1013.5
20260905075533 64 0 0.0 0.0 0.00 0.00 0.00 87 1013.6
20260905075034 64 0 0.0 0.0 0.00 0.00 0.00 86 1013.6
20260905074550 65 0 0.0 0.0 0.00 0.00 0.00 87 1013.8
20260905074032 65 0 0.0 0.0 0.00 0.00 0.00 87 1013.7
20260905073534 65 0 0.0 0.0 0.00 0.00 0.00 87 1013.6
20260905073055 65 0 0.0 0.0 0.00 0.00 0.00 87 1013.7
20260905072532 65 0 0.0 0.0 0.00 0.00 0.00 86 1013.6
20260905072033 65 0 0.0 0.0 0.00 0.00 0.00 86 1013.6
20260905071553 65 0 0.0 0.0 0.00 0.00 0.00 86 1013.6
20260905071031 65 0 0.0 0.0 0.00 0.00 0.00 86 1013.6
20260905070534 65 0 0.0 0.0 0.00 0.00 0.00 86 1013.6
20260905070057 65 0 0.0 0.0 0.00 0.00 0.00 86 1013.7
20260905065532 65 0 0.0 0.0 0.00 0.00 0.00 86 1013.8
20260905065035 65 0 0.0 0.0 0.00 0.00 0.00 86 1013.7
20260905064616 65 0 0.0 0.0 0.00 0.00 0.00 86 1013.7
20260905064036 65 0 0.0 0.0 0.00 0.00 0.00 86 1013.7
20260905063536 65 0 0.0 0.0 0.00 0.00 0.00 86 1013.8
20260905063101 65 0 0.0 0.0 0.00 0.00 0.00 86 1013.7
20260905062535 66 0 0.0 0.0 0.00 0.00 0.00 86 1013.7
20260905062035 66 0 0.0 0.0 0.00 0.00 0.00 86 1013.7
20260905061601 66 0 0.0 0.0 0.00 0.00 0.00 86 1013.6
20260905061036 66 0 0.0 0.0 0.00 0.00 0.00 86 1013.6
20260905060535 66 0 0.0 0.0 0.00 0.00 0.00 86 1013.6
20260905060106 66 0 0.0 0.0 0.00 0.00 0.00 86 1013.6
20260905055533 66 0 0.0 0.0 0.00 0.00 0.00 86 1013.6
20260905055035 66 0 0.0 0.0 0.00 0.00 0.00 86 1013.6
20260905054601 66 0 0.0 0.9 0.00 0.00 0.00 86 1013.5
20260905054040 66 0 0.0 0.9 0.00 0.00 0.00 86 1013.5
20260905053536 66 0 0.0 0.9 0.00 0.00 0.00 86 1013.5
20260905053054 66 0 0.0 0.0 0.00 0.00 0.00 85 1013.6
20260905052537 66 0 0.0 0.0 0.00 0.00 0.00 85 1013.6
20260905052036 66 0 0.0 0.0 0.00 0.00 0.00 85 1013.5
20260905051554 66 0 0.0 0.0 0.00 0.00 0.00 85 1013.6
20260905051036 66 0 0.0 0.0 0.00 0.00 0.00 85 1013.6
20260905050536 66 0 0.0 0.0 0.00 0.00 0.00 85 1013.7
20260905050058 67 0 0.0 0.0 0.00 0.00 0.00 84 1013.7
20260905045538 67 0 0.0 0.0 0.00 0.00 0.00 84 1013.6
20260905045035 67 0 0.0 0.0 0.00 0.00 0.00 84 1013.6
20260905044604 67 0 0.0 0.0 0.00 0.00 0.00 84 1013.5
20260905044037 67 0 0.0 0.0 0.00 0.00 0.00 84 1013.5
20260905043535 67 0 0.0 0.0 0.00 0.00 0.00 84 1013.4
20260905043101 67 0 0.0 0.0 0.00 0.00 0.00 84 1013.4
20260905042535 67 0 0.0 0.0 0.00 0.00 0.00 84 1013.1
20260905042036 67 0 0.0 0.0 0.00 0.00 0.00 84 1013.1
20260905041558 67 0 0.0 0.0 0.00 0.00 0.00 84 1013.1
20260905041035 67 0 0.0 0.9 0.00 0.00 0.00 83 1013.2
20260905040535 67 0 0.0 0.9 0.00 0.00 0.00 83 1013.1
20260905035535 67 0 0.0 0.0 0.00 0.00 0.00 83 1013.2
20260905035032 67 0 0.0 0.9 0.00 0.00 0.00 83 1013.1
20260905034605 67 0 0.0 0.9 0.00 0.00 0.00 83 1013.0
20260905034037 67 0 0.0 0.9 0.00 0.00 0.00 83 1013.0
20260905033535 68 0 0.0 0.9 0.00 0.00 0.00 82 1013.0
20260905033103 68 0 0.0 1.7 0.00 0.00 0.00 82 1013.0
20260905032534 68 0 0.0 1.7 0.00 0.00 0.00 82 1012.9
20260905032035 68 0 0.0 1.7 0.00 0.00 0.00 82 1012.8
20260905031555 68 0 0.0 0.9 0.00 0.00 0.00 81 1012.8
20260905031035 68 291 0.0 0.9 0.00 0.00 0.00 81 1012.9
20260905030535 68 0 0.0 1.7 0.00 0.00 0.00 81 1012.8
20260905030117 69 291 0.0 1.7 0.00 0.00 0.00 80 1012.6
20260905025535 69 0 0.0 1.7 0.00 0.00 0.00 80 1012.5
20260905025035 69 291 0.0 1.7 0.00 0.00 0.00 79 1012.4
20260905024605 69 301 0.0 1.7 0.00 0.00 0.00 79 1012.4
20260905024035 69 0 0.0 1.7 0.00 0.00 0.00 78 1012.5
20260905023534 70 0 0.0 1.7 0.00 0.00 0.00 78 1012.5
20260905023104 70 0 0.0 1.7 0.00 0.00 0.00 77 1012.5
20260905022535 70 252 0.0 3.5 0.00 0.00 0.00 77 1012.6
20260905022035 70 0 0.0 3.5 0.00 0.00 0.00 77 1012.6
20260905021604 71 282 0.9 3.5 0.00 0.00 0.00 76 1012.6
20260905021035 71 300 0.9 3.5 0.00 0.00 0.00 75 1012.6
20260905020539 71 307 1.7 3.5 0.00 0.00 0.00 75 1012.6
20260905020107 72 272 1.7 3.5 0.00 0.00 0.00 74 1012.6
20260905015535 72 250 0.9 5.2 0.00 0.00 0.00 73 1012.5
20260905015038 73 294 1.7 5.2 0.00 0.00 0.00 73 1012.6
20260905014601 73 283 0.9 3.5 0.00 0.00 0.00 73 1012.5
20260905014035 73 325 1.7 3.5 0.00 0.00 0.00 72 1012.5
20260905013535 74 280 0.9 3.5 0.00 0.00 0.00 72 1012.4
20260905013056 74 275 0.9 4.3 0.00 0.00 0.00 72 1012.3
20260905012538 74 277 1.7 4.3 0.00 0.00 0.00 71 1012.4
20260905012034 74 256 1.7 5.2 0.00 0.00 0.00 71 1012.4